Weather History for KRZN - May, 2014

Change the Weather History Date:

Tuesday, May 6, 2014

  Actual Average Record
Temperature  
Mean Temperature 52 °F -  
Max Temperature 64 °F - - ()
Min Temperature 39 °F - - ()
Degree Days  
Heating Degree Days 14    
Growing Degree Days 2 (Base 50)    
Moisture  
Dew Point 34 °F    
Average Humidity 48    
Maximum Humidity 89    
Minimum Humidity 31    
Precipitation  
Precipitation 0.00 in - - ()
Sea Level Pressure  
Sea Level Pressure 29.94 in    
Wind  
Wind Speed 8 mph (SE)    
Max Wind Speed 17 mph    
Max Gust Speed 25 mph    
Visibility 10 miles    
Events      
T = Trace of Precipitation, MM = Missing Value Source: NWS Daily Summary

Daily Weather History Graph

Daily Weather History Graph

Search for Another Location

Airport or City:

Trip Planner

Search our weather history database for the weather conditions in past years. The results will help you decide how hot, cold, wet, or windy it might be!

Date:

Astronomy

May. 06, 2014 Rise Set
Actual Time 5:49 AM CDT 8:23 PM CDT
Civil Twilight 5:15 AM CDT 8:57 PM CDT
Nautical Twilight 4:33 AM CDT 9:39 PM CDT
Astronomical Twilight 3:45 AM CDT 10:28 PM CDT
Moon 12:09 PM CDT (5/6) 1:39 AM CDT (5/6)
Length of Visible Light 15h 41m
Length of Day
14h 34m
Waxing Crescent, 46% of the Moon is Illuminated
May 6
Waxing Crescent
May 6
First Quarter
May 14
Full
May 21
Last Quarter
May 28
New

Hourly Weather History & Observations

Time (CDT) Temp. Windchill Dew Point Humidity Pressure Visibility Wind Dir Wind Speed Gust Speed Precip Events Conditions
12:10 AM 44.6 °F 42.2 °F 36.7 °F 74% 30.01 in 10.0 mi ENE 4.6 mph - N/A   Clear
12:30 AM 43.9 °F 42.3 °F 36.5 °F 75% 30.01 in 10.0 mi East 3.5 mph - N/A   Clear
12:50 AM 43.7 °F 42.1 °F 36.5 °F 76% 30.01 in 10.0 mi East 3.5 mph - N/A   Clear
1:10 AM 42.8 °F 41.1 °F 36.5 °F 78% 30.02 in 10.0 mi ENE 3.5 mph - N/A   Clear
1:30 AM 42.4 °F 39.6 °F 36.1 °F 78% 30.01 in 10.0 mi East 4.6 mph - N/A   Clear
1:50 AM 42.1 °F 40.2 °F 36.5 °F 81% 30.01 in 10.0 mi East 3.5 mph - N/A   Clear
2:10 AM 41.9 °F 40.0 °F 36.1 °F 80% 30.00 in 10.0 mi ENE 3.5 mph - N/A   Clear
2:30 AM 41.4 °F 39.4 °F 36.1 °F 82% 30.01 in 10.0 mi East 3.5 mph - N/A   Clear
6:30 AM 39.9 °F - 37.0 °F 89% 30.01 in 10.0 mi Calm Calm - N/A   Clear
6:50 AM 40.8 °F - 36.9 °F 86% 30.00 in 10.0 mi Calm Calm - N/A   Clear
7:10 AM 42.1 °F - 37.4 °F 83% 30.01 in 10.0 mi Calm Calm - N/A   Clear
7:30 AM 44.2 °F - 37.8 °F 78% 30.01 in 10.0 mi Calm Calm - N/A   Clear
7:50 AM 46.9 °F - 37.9 °F 71% 30.01 in 10.0 mi SE 4.6 mph - N/A   Clear
8:10 AM 50.0 °F - 35.8 °F 58% 30.01 in 10.0 mi SSE 10.4 mph 18.4 mph N/A   Clear
8:30 AM 50.9 °F - 35.1 °F 55% 30.01 in 10.0 mi SSE 12.7 mph 16.1 mph N/A   Clear
9:10 AM 52.3 °F - 34.2 °F 50% 30.02 in 10.0 mi SSE 13.8 mph 18.4 mph N/A   Scattered Clouds
9:30 AM 52.5 °F - 34.0 °F 49% 30.02 in 10.0 mi SSE 11.5 mph 18.4 mph N/A   Clear
9:50 AM 54.7 °F - 34.3 °F 46% 30.01 in 10.0 mi SSE 10.4 mph - N/A   Clear
10:10 AM 55.0 °F - 34.7 °F 46% 30.01 in 10.0 mi SE 10.4 mph - N/A   Clear
10:30 AM 56.7 °F - 34.9 °F 44% 30.01 in 10.0 mi SE 9.2 mph - N/A   Clear
10:50 AM 56.3 °F - 34.2 °F 43% 30.00 in 10.0 mi SSE 11.5 mph - N/A   Clear
11:10 AM 58.1 °F - 33.8 °F 40% 29.99 in 10.0 mi SSE 12.7 mph 19.6 mph N/A   Clear
11:30 AM 58.8 °F - 34.0 °F 39% 29.97 in 10.0 mi SSE 13.8 mph 21.9 mph N/A   Clear
11:50 AM 59.2 °F - 32.9 °F 37% 29.99 in 10.0 mi SE 10.4 mph 19.6 mph N/A   Clear
12:10 PM 59.2 °F - 32.7 °F 37% 29.98 in 10.0 mi SSE 11.5 mph 18.4 mph N/A   Clear
12:30 PM 61.2 °F - 33.1 °F 35% 29.98 in 10.0 mi SSE 11.5 mph 17.3 mph N/A   Clear
12:50 PM 61.2 °F - 32.5 °F 34% 29.96 in 10.0 mi SE 9.2 mph 18.4 mph N/A   Clear
1:10 PM 62.6 °F - 32.5 °F 32% 29.94 in 10.0 mi SSE 13.8 mph 21.9 mph N/A   Clear
1:30 PM 63.1 °F - 32.9 °F 32% 29.93 in 10.0 mi SE 13.8 mph 19.6 mph N/A   Clear
1:50 PM 62.8 °F - 33.1 °F 33% 29.92 in 10.0 mi SE 12.7 mph 24.2 mph N/A   Clear
2:10 PM 61.7 °F - 32.9 °F 34% 29.91 in 10.0 mi ESE 12.7 mph 25.3 mph N/A   Clear
2:30 PM 63.3 °F - 33.3 °F 33% 29.91 in 10.0 mi ESE 12.7 mph 20.7 mph N/A   Clear
3:10 PM 63.5 °F - 33.3 °F 32% 29.89 in 10.0 mi SE 13.8 mph 23.0 mph N/A   Clear
3:30 PM 64.4 °F - 33.3 °F 31% 29.89 in 10.0 mi SE 10.4 mph 17.3 mph N/A   Clear
3:50 PM 63.9 °F - 32.9 °F 31% 29.89 in 10.0 mi SE 13.8 mph 21.9 mph N/A   Clear
4:10 PM 64.4 °F - 33.8 °F 32% 29.88 in 10.0 mi SSE 17.3 mph 23.0 mph N/A   Clear
4:30 PM 63.9 °F - 32.9 °F 31% 29.88 in 10.0 mi ESE 15.0 mph 24.2 mph N/A   Clear
4:50 PM 62.4 °F - 32.7 °F 33% 29.87 in 10.0 mi ESE 12.7 mph 20.7 mph N/A   Clear
5:10 PM 62.6 °F - 32.4 °F 32% 29.87 in 10.0 mi SE 13.8 mph 21.9 mph N/A   Clear
5:30 PM 63.0 °F - 32.9 °F 32% 29.86 in 10.0 mi ESE 11.5 mph 19.6 mph N/A   Clear
5:50 PM 62.6 °F - 32.9 °F 33% 29.87 in 10.0 mi ESE 11.5 mph 20.7 mph N/A   Clear
6:10 PM 61.7 °F - 32.9 °F 34% 29.85 in 10.0 mi SE 11.5 mph 21.9 mph N/A   Clear
6:30 PM 61.7 °F - 32.9 °F 34% 29.87 in 10.0 mi ESE 9.2 mph 20.7 mph N/A   Clear
6:50 PM 61.3 °F - 34.0 °F 36% 29.88 in 10.0 mi SE 9.2 mph 18.4 mph N/A   Scattered Clouds
7:10 PM 60.8 °F - 34.2 °F 37% 29.88 in 10.0 mi ESE 9.2 mph - N/A   Mostly Cloudy
7:30 PM 60.4 °F - 34.3 °F 38% 29.89 in 10.0 mi ESE 5.8 mph - N/A   Overcast
7:50 PM 60.1 °F - 34.9 °F 39% 29.88 in 10.0 mi SE 6.9 mph - N/A   Overcast
8:10 PM 59.5 °F - 35.8 °F 41% 29.89 in 10.0 mi SSE 10.4 mph - N/A   Overcast
8:30 PM 59.2 °F - 34.7 °F 40% 29.88 in 10.0 mi ESE 9.2 mph - N/A   Overcast
8:50 PM 58.6 °F - 34.7 °F 41% 29.88 in 10.0 mi SE 6.9 mph - N/A   Mostly Cloudy
9:10 PM 58.3 °F - 34.9 °F 41% 29.89 in 10.0 mi ESE 8.1 mph - N/A   Mostly Cloudy
9:30 PM 58.1 °F - 35.2 °F 42% 29.88 in 10.0 mi ESE 11.5 mph 19.6 mph N/A   Mostly Cloudy
9:50 PM 57.7 °F - 35.1 °F 43% 29.89 in 10.0 mi SE 11.5 mph 17.3 mph N/A   Mostly Cloudy
10:10 PM 57.2 °F - 34.9 °F 43% 29.89 in 10.0 mi SE 8.1 mph 17.3 mph N/A   Overcast
10:30 PM 56.5 °F - 34.0 °F 43% 29.89 in 10.0 mi SE 13.8 mph 20.7 mph N/A   Mostly Cloudy
10:50 PM 56.3 °F - 33.3 °F 42% 29.89 in 10.0 mi SE 9.2 mph - N/A   Overcast
11:30 PM 55.4 °F - 32.4 °F 42% 29.87 in 10.0 mi SE 13.8 mph 23.0 mph N/A   Mostly Cloudy
11:50 PM 55.0 °F - 32.0 °F 42% 29.88 in 10.0 mi SE 8.1 mph 16.1 mph N/A   Overcast